Regional Weather Roundup
Issued by NWS

Home | Current Version | Previous Version | Text Only | Print | Product List | Glossary On
Versions: 1 2 3 4 5 6 7 8 9 10 11 12 13 14 15 16 17 18 19 20 21 22 23 24 25 26 27 28
000
ASUS45 KBOI 190510
RWRID

IDAHO REGIONAL WEATHER ROUNDUP
NATIONAL WEATHER SERVICE BOISE ID
1000 PM MST WED JAN 18 2017

NOTE: "FAIR" INDICATES FEW OR NO CLOUDS BELOW 12000 FEET
WITH NO SIGNIFICANT WEATHER AND/OR OBSTRUCTIONS TO VISIBILITY

IDZ012-014-190600-
SOUTHWEST IDAHO


CITY           SKY/WX    TMP DP  RH WIND       PRES   REMARKS
BOISE          MIX PCPN  36  33  89 SE17      29.69F WCI  26
CALDWELL       LGT SNOW  33  31  92 SE25G32   29.71F FOG     WCI  20
MOUNTAIN HOME  LGT SNOW  32  32 100 E24       29.74F FOG     WCI  19
$$

IDZ016-017-190600-
SOUTHCENTRAL IDAHO


CITY           SKY/WX    TMP DP  RH WIND       PRES   REMARKS
BURLEY         RAIN      34  30  85 SE7       29.76F WCI  28
JEROME         LGT SNOW  26  24  92 NE24      29.77F FOG     WCI  11
TWIN FALLS     MIX PCPN  30  27  88 NE7       29.75F FOG     WCI  23
$$

IDZ019>023-190600-
SOUTHEAST IDAHO


CITY           SKY/WX    TMP DP  RH WIND       PRES   REMARKS
IDAHO FALLS    CLOUDY    19  15  84 NW6       29.84R WCI  11
POCATELLO      CLOUDY    24  19  81 CALM      29.83S
REXBURG        CLOUDY    18  14  84 CALM      29.82F
$$

IDZ006-010-011-018-031-032-190600-
CENTRAL IDAHO MOUNTAINS


CITY           SKY/WX    TMP DP  RH WIND       PRES   REMARKS
MCCALL         LGT SNOW  33  30  88 S9        29.60F VSB 1   WCI  25
HAILEY         LGT SNOW  27  27 100 CALM      29.78F VSB 3/4
STANLEY          N/A     34  32  92 S10       29.66F WCI  26
SALMON         CLOUDY    12  10  92 CALM      29.74S
CHALLIS        LGT SNOW  17  16  95 N3        29.73F FOG
$$

IDZ002-004-006-007-026-190600-
NORTHERN IDAHO


CITY           SKY/WX    TMP DP  RH WIND       PRES   REMARKS
LEWISTON       CLOUDY    37  32  82 E7        29.55F WCI  32
LOWELL           N/A     33  31  92 NW6       29.61F WCI  28
COEUR D`ALENE  MIX PCPN  34  33  96 N5        29.51F WCI  30
MULLAN PASS    SNOW      32  31  96 VRB3      29.49F VSB 1/4
$$




USA.gov is the U.S. government's official web portal to all federal, state and local government web resources and services.